Time,TemperatureF,DewpointF,PressureIn,WindDirection,WindDirectionDegrees,WindSpeedMPH,WindSpeedGustMPH,Humidity,HourlyPrecipIn,Conditions,Clouds,dailyrainin,SoftwareType,DateUTC
2013-07-18 00:02:00,71.0,62.0,-100.00,ENE,70,5.0,6.0,73,-99.99,,,-99.99,,2013-07-18 05:02:00,
2013-07-18 00:10:00,69.0,62.0,-100.00,NNE,30,3.0,4.0,77,-99.99,,,-99.99,,2013-07-18 05:10:00,
2013-07-18 00:32:00,69.0,62.0,-100.00,NNE,30,3.0,4.0,77,-99.99,,,-99.99,,2013-07-18 05:32:00,
2013-07-18 00:42:00,69.0,62.0,-100.00,NNE,30,3.0,4.0,77,-99.99,,,-99.99,,2013-07-18 05:42:00,
2013-07-18 00:52:00,69.0,62.0,-100.00,NNE,30,3.0,4.0,77,-99.99,,,-99.99,,2013-07-18 05:52:00,
2013-07-18 01:01:00,69.0,62.0,-100.00,NNE,30,3.0,4.0,77,-99.99,,,-99.99,,2013-07-18 06:01:00,
2013-07-18 01:10:00,67.0,63.0,-100.00,NNE,20,4.0,4.0,88,-99.99,,,-99.99,,2013-07-18 06:10:00,
2013-07-18 01:43:00,67.0,63.0,-100.00,NNE,20,4.0,4.0,88,-99.99,,,-99.99,,2013-07-18 06:43:00,
2013-07-18 01:52:00,67.0,63.0,-100.00,NNE,20,4.0,4.0,88,-99.99,,,-99.99,,2013-07-18 06:52:00,
2013-07-18 02:01:00,67.0,63.0,-100.00,NNE,20,4.0,4.0,88,-99.99,,,-99.99,,2013-07-18 07:01:00,
2013-07-18 02:42:00,67.0,63.0,-100.00,West,270,8.0,11.0,87,-99.99,,,-99.99,,2013-07-18 07:42:00,
2013-07-18 02:52:00,67.0,63.0,-100.00,West,270,8.0,11.0,87,-99.99,,,-99.99,,2013-07-18 07:52:00,
2013-07-18 03:01:00,67.0,63.0,-100.00,West,270,8.0,11.0,87,-99.99,,,-99.99,,2013-07-18 08:01:00,
2013-07-18 03:42:00,64.0,63.0,-100.00,NNE,30,10.0,12.0,99,-99.99,,,-99.99,,2013-07-18 08:42:00,
2013-07-18 03:52:00,64.0,63.0,-100.00,NNE,30,10.0,12.0,99,-99.99,,,-99.99,,2013-07-18 08:52:00,
2013-07-18 04:01:00,64.0,63.0,-100.00,NNE,30,10.0,12.0,99,-99.99,,,-99.99,,2013-07-18 09:01:00,
2013-07-18 04:42:00,65.0,65.0,-100.00,ENE,60,7.0,8.0,99,-99.99,,,-99.99,,2013-07-18 09:42:00,
2013-07-18 04:51:00,65.0,65.0,-100.00,ENE,60,7.0,8.0,99,-99.99,,,-99.99,,2013-07-18 09:51:00,
2013-07-18 05:01:00,65.0,65.0,-100.00,ENE,60,7.0,8.0,99,-99.99,,,-99.99,,2013-07-18 10:01:00,
2013-07-18 06:10:00,65.0,64.0,-100.00,West,270,2.0,3.0,99,-99.99,,,-99.99,,2013-07-18 11:10:00,
2013-07-18 06:43:00,65.0,64.0,-100.00,West,270,2.0,3.0,99,-99.99,,,-99.99,,2013-07-18 11:43:00,
2013-07-18 06:52:00,65.0,64.0,-100.00,West,270,2.0,3.0,99,-99.99,,,-99.99,,2013-07-18 11:52:00,
2013-07-18 07:01:00,65.0,64.0,-100.00,West,270,2.0,3.0,99,-99.99,,,-99.99,,2013-07-18 12:01:00,
2013-07-18 07:10:00,63.0,62.0,-100.00,West,270,4.0,5.0,99,-99.99,,,-99.99,,2013-07-18 12:10:00,
2013-07-18 07:42:00,63.0,62.0,-100.00,West,270,4.0,5.0,99,-99.99,,,-99.99,,2013-07-18 12:42:00,
2013-07-18 07:52:00,63.0,62.0,-100.00,West,270,4.0,5.0,99,-99.99,,,-99.99,,2013-07-18 12:52:00,
2013-07-18 08:01:00,63.0,62.0,-100.00,West,270,4.0,5.0,99,-99.99,,,-99.99,,2013-07-18 13:01:00,
2013-07-18 08:43:00,64.0,64.0,-100.00,North,350,10.0,12.0,99,-99.99,,,-99.99,,2013-07-18 13:43:00,
2013-07-18 08:53:00,64.0,64.0,-100.00,North,350,10.0,12.0,99,-99.99,,,-99.99,,2013-07-18 13:53:00,
2013-07-18 09:02:00,64.0,64.0,-100.00,North,350,10.0,12.0,99,-99.99,,,-99.99,,2013-07-18 14:02:00,
2013-07-18 09:33:00,67.0,67.0,-100.00,ESE,115,6.0,7.0,99,-99.99,,,-99.99,,2013-07-18 14:33:00,
2013-07-18 09:43:00,67.0,67.0,-100.00,ESE,115,6.0,7.0,99,-99.99,,,-99.99,,2013-07-18 14:43:00,
2013-07-18 09:53:00,67.0,67.0,-100.00,ESE,115,6.0,7.0,99,-99.99,,,-99.99,,2013-07-18 14:53:00,
2013-07-18 10:01:00,67.0,67.0,-100.00,ESE,115,6.0,7.0,99,-99.99,,,-99.99,,2013-07-18 15:01:00,
2013-07-18 10:43:00,73.0,71.0,-100.00,SE,130,3.0,4.0,94,-99.99,,,-99.99,,2013-07-18 15:43:00,
2013-07-18 10:53:00,73.0,71.0,-100.00,SE,130,3.0,4.0,94,-99.99,,,-99.99,,2013-07-18 15:53:00,
2013-07-18 11:01:00,73.0,71.0,-100.00,SE,130,3.0,4.0,94,-99.99,,,-99.99,,2013-07-18 16:01:00,
2013-07-18 11:42:00,76.0,73.0,-100.00,South,185,3.0,5.0,91,-99.99,,,-99.99,,2013-07-18 16:42:00,
2013-07-18 11:52:00,76.0,73.0,-100.00,South,185,3.0,5.0,91,-99.99,,,-99.99,,2013-07-18 16:52:00,
2013-07-18 12:02:00,76.0,73.0,-100.00,South,185,3.0,5.0,91,-99.99,,,-99.99,,2013-07-18 17:02:00,
2013-07-18 12:33:00,80.0,75.0,-100.00,SE,145,4.0,6.0,85,-99.99,,,-99.99,,2013-07-18 17:33:00,
2013-07-18 12:43:00,80.0,75.0,-100.00,SE,145,4.0,6.0,85,-99.99,,,-99.99,,2013-07-18 17:43:00,
2013-07-18 12:52:00,80.0,75.0,-100.00,SE,145,4.0,6.0,85,-99.99,,,-99.99,,2013-07-18 17:52:00,
2013-07-18 13:01:00,80.0,75.0,-100.00,SE,145,4.0,6.0,85,-99.99,,,-99.99,,2013-07-18 18:01:00,
2013-07-18 13:32:00,83.0,76.0,-100.00,SSW,210,7.0,9.0,79,-99.99,,,-99.99,,2013-07-18 18:32:00,
2013-07-18 13:43:00,83.0,76.0,-100.00,SSW,210,7.0,9.0,79,-99.99,,,-99.99,,2013-07-18 18:43:00,
2013-07-18 13:52:00,83.0,76.0,-100.00,SSW,210,7.0,9.0,79,-99.99,,,-99.99,,2013-07-18 18:52:00,
2013-07-18 14:02:00,83.0,76.0,-100.00,SSW,210,7.0,9.0,79,-99.99,,,-99.99,,2013-07-18 19:02:00,
2013-07-18 14:43:00,84.0,75.0,-100.00,SW,220,6.0,11.0,76,-99.99,,,-99.99,,2013-07-18 19:43:00,
2013-07-18 14:53:00,84.0,75.0,-100.00,SW,220,6.0,11.0,76,-99.99,,,-99.99,,2013-07-18 19:53:00,
2013-07-18 15:01:00,84.0,75.0,-100.00,SW,220,6.0,11.0,76,-99.99,,,-99.99,,2013-07-18 20:01:00,
2013-07-18 15:11:00,85.0,75.0,-100.00,West,260,5.0,8.0,70,-99.99,,,-99.99,,2013-07-18 20:11:00,
2013-07-18 15:43:00,85.0,75.0,-100.00,West,260,5.0,8.0,70,-99.99,,,-99.99,,2013-07-18 20:43:00,
2013-07-18 15:52:00,85.0,75.0,-100.00,West,260,5.0,8.0,70,-99.99,,,-99.99,,2013-07-18 20:52:00,
2013-07-18 16:01:00,85.0,75.0,-100.00,West,260,5.0,8.0,70,-99.99,,,-99.99,,2013-07-18 21:01:00,
2013-07-18 17:11:00,86.0,75.0,-100.00,WNW,300,9.0,11.0,70,-99.99,,,-99.99,,2013-07-18 22:11:00,
2013-07-18 17:43:00,86.0,75.0,-100.00,WNW,300,9.0,11.0,70,-99.99,,,-99.99,,2013-07-18 22:43:00,
2013-07-18 17:53:00,86.0,75.0,-100.00,WNW,300,9.0,11.0,70,-99.99,,,-99.99,,2013-07-18 22:53:00,
2013-07-18 18:02:00,86.0,75.0,-100.00,WNW,300,9.0,11.0,70,-99.99,,,-99.99,,2013-07-18 23:02:00,
2013-07-18 18:10:00,86.0,76.0,-100.00,WNW,290,12.0,16.0,72,-99.99,,,-99.99,,2013-07-18 23:10:00,
2013-07-18 18:42:00,86.0,76.0,-100.00,WNW,290,12.0,16.0,72,-99.99,,,-99.99,,2013-07-18 23:42:00,
2013-07-18 18:52:00,86.0,76.0,-100.00,WNW,290,12.0,16.0,72,-99.99,,,-99.99,,2013-07-18 23:52:00,
2013-07-18 19:01:00,86.0,76.0,-100.00,WNW,290,12.0,16.0,72,-99.99,,,-99.99,,2013-07-19 00:01:00,
2013-07-18 19:10:00,84.0,74.0,-100.00,West,270,16.0,18.0,71,-99.99,,,-99.99,,2013-07-19 00:10:00,
2013-07-18 19:43:00,84.0,74.0,-100.00,West,270,16.0,18.0,71,-99.99,,,-99.99,,2013-07-19 00:43:00,
2013-07-18 19:52:00,84.0,74.0,-100.00,West,270,16.0,18.0,71,-99.99,,,-99.99,,2013-07-19 00:52:00,
2013-07-18 20:01:00,84.0,74.0,-100.00,West,270,16.0,18.0,71,-99.99,,,-99.99,,2013-07-19 01:01:00,
2013-07-18 20:32:00,83.0,73.0,-100.00,WNW,285,12.0,14.0,73,-99.99,,,-99.99,,2013-07-19 01:32:00,
2013-07-18 20:42:00,83.0,73.0,-100.00,WNW,285,12.0,14.0,73,-99.99,,,-99.99,,2013-07-19 01:42:00,
2013-07-18 20:52:00,83.0,73.0,-100.00,WNW,285,12.0,14.0,73,-99.99,,,-99.99,,2013-07-19 01:52:00,
2013-07-18 21:01:00,83.0,73.0,-100.00,WNW,285,12.0,14.0,73,-99.99,,,-99.99,,2013-07-19 02:01:00,
2013-07-18 21:11:00,80.0,73.0,-100.00,WNW,295,6.0,7.0,80,-99.99,,,-99.99,,2013-07-19 02:11:00,
2013-07-18 21:43:00,80.0,73.0,-100.00,WNW,295,6.0,7.0,80,-99.99,,,-99.99,,2013-07-19 02:43:00,
2013-07-18 21:52:00,80.0,73.0,-100.00,WNW,295,6.0,7.0,80,-99.99,,,-99.99,,2013-07-19 02:52:00,
2013-07-18 22:01:00,80.0,73.0,-100.00,WNW,295,6.0,7.0,80,-99.99,,,-99.99,,2013-07-19 03:01:00,
2013-07-18 22:43:00,75.0,73.0,-100.00,SW,230,4.0,4.0,93,-99.99,,,-99.99,,2013-07-19 03:43:00,
2013-07-18 22:52:00,75.0,73.0,-100.00,SW,230,4.0,4.0,93,-99.99,,,-99.99,,2013-07-19 03:52:00,
2013-07-18 23:02:00,75.0,73.0,-100.00,SW,230,4.0,4.0,93,-99.99,,,-99.99,,2013-07-19 04:02:00,
2013-07-18 23:10:00,73.0,73.0,-100.00,SSW,210,7.0,7.0,99,-99.99,,,-99.99,,2013-07-19 04:10:00,
2013-07-18 23:44:00,73.0,73.0,-100.00,SSW,210,7.0,7.0,99,-99.99,,,-99.99,,2013-07-19 04:44:00,
2013-07-18 23:52:00,73.0,73.0,-100.00,SSW,210,7.0,7.0,99,-99.99,,,-99.99,,2013-07-19 04:52:00,